Weather History for Trail Valley, NT

Change the Weather History Date:

Monday, January 7, 2013

  Actual Average Record
Temperature  
Mean Temperature -28 °F -  
Max Temperature -22 °F - - ()
Min Temperature -33 °F - - ()
Degree Days  
Heating Degree Days 92    
Moisture  
Dew Point -35 °F    
Average Humidity 69    
Maximum Humidity 73    
Minimum Humidity 51    
Precipitation  
Precipitation 0.00 in - - ()
Sea Level Pressure  
Sea Level Pressure 29.77 in    
Wind  
Wind Speed 0 mph ()    
Max Wind Speed 1 mph    
Max Gust Speed -    
T = Trace of Precipitation, MM = Missing Value Source: Averaged Metar Reports

Daily Weather History Graph

Daily Weather History Graph

Search for Another Location

Airport:

Trip Planner

Search our weather history database for the weather conditions in past years. The results will help you decide how hot, cold, wet, or windy it might be!

Date:

Astronomy

Jan. 07, 2013 Rise Set
Actual Time 1:28 PM MST 2:32 PM MST
Civil Twilight 11:11 AM MST 4:49 PM MST
Nautical Twilight 9:43 AM MST 6:18 PM MST
Astronomical Twilight 8:30 AM MST 7:30 PM MST
Moon 7:41 AM MST (1/7) 12:02 PM MST (1/7)
Length of Visible Light 5h 37m
Length of Day
1h 04m
Waning Crescent, 22% of the Moon is Illuminated
Jan 7
Waning Crescent
Jan 11
New
Jan 18
First Quarter
Jan 26
Full
Feb 3
Last Quarter

Hourly Weather History & Observations

Time (MST) Temp. Dew Point Humidity Pressure Visibility Wind Dir Wind Speed Gust Speed Precip Events Conditions
12:00 AM -28.3 °F -34.6 °F 72% 29.81 in - Calm Calm - N/A   Unknown
1:00 AM -29.7 °F -36.2 °F 71% 29.81 in - West 1.2 mph - N/A   Unknown
2:00 AM -29.7 °F -36.2 °F 71% 29.81 in - Calm Calm - N/A   Unknown
3:00 AM -29.6 °F -36.0 °F 71% 29.81 in - Calm Calm - N/A   Unknown
4:00 AM -30.6 °F -37.1 °F 71% 29.79 in - Calm Calm - N/A   Unknown
5:00 AM -32 °F -39 °F 54% 29.79 in - Calm Calm - -  
5:00 AM -31.9 °F -38.6 °F 70% 29.79 in - Calm Calm - N/A   Unknown
6:00 AM -30.1 °F -36.9 °F 70% 29.78 in - Calm Calm - N/A   Unknown
7:00 AM -30.3 °F -36.9 °F 70% 29.76 in - Calm Calm - N/A   Unknown
8:00 AM -28.8 °F -35.5 °F 70% 29.75 in - West 1.2 mph - N/A   Unknown
9:00 AM -29.0 °F -35.5 °F 71% 29.75 in - Calm Calm - N/A   Unknown
10:00 AM -32.6 °F -39.3 °F 70% 29.75 in - Calm Calm - N/A   Unknown
11:00 AM -31 °F -38 °F 51% 29.75 in - Calm Calm - -  
11:00 AM -31.4 °F -38.2 °F 69% 29.75 in - Calm Calm - N/A   Unknown
12:00 PM -31.9 °F -38.7 °F 69% 29.75 in - West 1.2 mph - N/A   Unknown
1:00 PM -28.1 °F -34.8 °F 70% 29.76 in - Calm Calm - N/A   Unknown
2:00 PM -29.6 °F -36.2 °F 70% 29.75 in - West 1.2 mph - N/A   Unknown
3:00 PM -26.3 °F -32.8 °F 71% 29.75 in - Calm Calm - N/A   Unknown
4:00 PM -29.7 °F -36.2 °F 71% 29.76 in - Calm Calm - N/A   Unknown
5:00 PM -25 °F -32 °F 55% 29.76 in - Calm Calm - -  
5:00 PM -25.4 °F -31.7 °F 72% 29.76 in - Calm Calm - N/A   Unknown
6:00 PM -29.2 °F -35.5 °F 72% 29.75 in - Calm Calm - N/A   Unknown
7:00 PM -26.3 °F -32.6 °F 72% 29.75 in - West 1.2 mph - N/A   Unknown
8:00 PM -25.6 °F -31.7 °F 73% 29.76 in - Calm Calm - N/A   Unknown
9:00 PM -26.7 °F -33.0 °F 72% 29.77 in - West 1.2 mph - N/A   Unknown
10:00 PM -22.7 °F -28.8 °F 73% 29.77 in - Calm Calm - N/A   Unknown
11:00 PM -28 °F -34 °F 58% 29.79 in - Calm Calm - -  
11:00 PM -27.8 °F -33.9 °F 73% 29.79 in - Calm Calm - N/A   Unknown